FW3814 Weather Reports


time (UTC)temp
C
wind
direction
speed
KPH
gust
KPH
rain 1hr
cm
rain 24hr
cm
rain mn
cm
humidity
%
barometer
mb
20260904042504 20 333 0.0 3.2 0.00 0.00 0.00 64 1018.5
20260904042025 20 360 1.6 6.4 0.00 0.00 0.00 63 1018.4
20260904041504 20 5 4.8 6.4 0.00 0.00 0.00 63 1018.5
20260904041004 20 4 6.4 6.4 0.00 0.00 0.00 62 1018.5
20260904040504 20 360 4.8 6.4 0.00 0.00 0.00 61 1018.5
20260904040004 20 4 4.8 6.4 0.00 0.00 0.00 61 1018.5
20260904035504 20 9 3.2 6.4 0.00 0.00 0.00 61 1018.4
20260904035004 20 12 1.6 6.4 0.00 0.00 0.00 61 1018.4
20260904034504 20 13 3.2 6.4 0.00 0.00 0.00 61 1018.4
20260904034004 20 17 3.2 6.4 0.00 0.00 0.00 61 1018.7
20260904033504 20 19 3.2 6.4 0.00 0.00 0.00 61 1018.7
20260904033004 20 17 1.6 6.4 0.00 0.00 0.00 61 1018.7
20260904032504 20 17 1.6 6.4 0.00 0.00 0.00 61 1018.6
20260904032004 20 360 0.0 1.6 0.00 0.00 0.00 61 1018.7
20260904031504 20 7 0.0 4.8 0.00 0.00 0.00 62 1018.6
20260904031004 20 7 0.0 4.8 0.00 0.00 0.00 62 1018.7
20260904030504 20 0 0.0 0.0 0.00 0.00 0.00 62 1018.7
20260904030004 20 0 0.0 0.0 0.00 0.00 0.00 61 1018.6
20260904025504 20 0 0.0 0.0 0.00 0.00 0.00 60 1018.7
20260904025004 21 0 0.0 0.0 0.00 0.00 0.00 60 1018.6
20260904024525 21 0 0.0 0.0 0.00 0.00 0.00 60 1018.6
20260904024025 21 0 0.0 0.0 0.00 0.00 0.00 60 1018.6
20260904023504 21 36 3.2 8.0 0.00 0.00 0.00 60 1018.6
20260904023004 21 27 4.8 8.0 0.00 0.00 0.00 60 1018.7
20260904022504 21 17 4.8 6.4 0.00 0.00 0.00 61 1018.6
20260904022004 21 11 3.2 6.4 0.00 0.00 0.00 61 1018.6
20260904021504 21 9 3.2 6.4 0.00 0.00 0.00 62 1018.6
20260904021004 21 13 3.2 6.4 0.00 0.00 0.00 62 1018.5
20260904020504 20 351 3.2 4.8 0.00 0.00 0.00 63 1018.6
20260904020004 20 338 3.2 4.8 0.00 0.00 0.00 63 1018.5
20260904015504 20 360 0.0 4.8 0.00 0.00 0.00 63 1018.5
20260904015004 21 360 0.0 4.8 0.00 0.00 0.00 62 1018.4
20260904014504 21 357 1.6 4.8 0.00 0.00 0.00 62 1018.3
20260904014025 21 16 1.6 6.4 0.00 0.00 0.00 61 1018.3
20260904013504 21 22 1.6 6.4 0.00 0.00 0.00 61 1018.3
20260904013004 21 12 0.0 3.2 0.00 0.00 0.00 62 1018.3
20260904012504 21 5 3.2 8.0 0.00 0.00 0.00 61 1018.4
20260904012004 21 5 3.2 8.0 0.00 0.00 0.00 60 1018.3
20260904011504 21 360 0.0 3.2 0.00 0.00 0.00 60 1018.4
20260904011004 21 0 0.0 0.0 0.00 0.00 0.00 60 1018.3
20260904010504 21 0 0.0 0.0 0.00 0.00 0.00 60 1018.5
20260904010004 21 0 0.0 0.0 0.00 0.00 0.00 60 1018.5
20260904005504 21 0 0.0 0.0 0.00 0.00 0.00 60 1018.4
20260904005004 22 0 0.0 0.0 0.00 0.00 0.00 60 1018.3
20260904004504 22 9 0.0 4.8 0.00 0.00 0.00 60 1018.4
20260904004004 22 19 3.2 6.4 0.00 0.00 0.00 60 1018.3
20260904003504 22 19 3.2 6.4 0.00 0.00 0.00 60 1018.4
20260904003004 22 12 3.2 6.4 0.00 0.00 0.00 61 1018.6
20260904002504 22 8 3.2 6.4 0.00 0.00 0.00 61 1018.5
20260904002025 21 7 3.2 6.4 0.00 0.00 0.00 61 1018.6
20260904001504 22 8 1.6 6.4 0.00 0.00 0.00 61 1018.8
20260904001025 22 20 3.2 6.4 0.00 0.00 0.00 61 1018.7
20260904000504 22 19 4.8 6.4 0.00 0.00 0.00 61 1018.5
20260904000004 22 11 4.8 6.4 0.00 0.00 0.00 61 1018.8
20260903235504 22 5 4.8 6.4 0.00 0.00 0.00 60 1018.7
20260903235025 22 5 1.6 6.4 0.00 0.00 0.00 56 1018.8
20260903234504 22 5 3.2 6.4 0.00 0.00 0.00 55 1018.8
20260903234004 22 7 4.8 6.4 0.00 0.00 0.00 54 1018.9
20260903233503 22 12 6.4 8.0 0.00 0.00 0.00 54 1018.9
20260903233025 22 7 4.8 8.0 0.00 0.00 0.00 54 1018.9
20260903232504 22 353 3.2 6.4 0.00 0.00 0.00 54 1018.8
20260903232004 23 355 3.2 8.0 0.00 0.00 0.00 54 1018.9
20260903231504 23 14 6.4 9.7 0.00 0.00 0.00 54 1018.9
20260903231003 23 20 6.4 8.0 0.00 0.00 0.00 54 1018.8
20260903230503 22 16 6.4 9.7 0.00 0.00 0.00 54 1018.8
20260903230003 22 7 6.4 9.7 0.00 0.00 0.00 54 1018.7
20260903225524 23 3 4.8 6.4 0.00 0.00 0.00 54 1018.7
20260903225003 23 358 3.2 4.8 0.00 0.00 0.00 54 1018.7
20260903224503 23 358 1.6 4.8 0.00 0.00 0.00 54 1018.6
20260903224003 23 19 0.0 3.2 0.00 0.00 0.00 54 1018.8
20260903223503 23 18 1.6 3.2 0.00 0.00 0.00 54 1018.7
20260903223003 23 9 1.6 4.8 0.00 0.00 0.00 54 1018.7
20260903222503 23 9 3.2 6.4 0.00 0.00 0.00 54 1018.8
20260903222003 23 8 3.2 6.4 0.00 0.00 0.00 54 1018.7
20260903221503 23 1 1.6 3.2 0.00 0.00 0.00 54 1018.6
20260903221003 23 9 0.0 1.6 0.00 0.00 0.00 54 1018.8
20260903220503 23 358 1.6 4.8 0.00 0.00 0.00 53 1018.9
20260903220004 23 2 4.8 6.4 0.00 0.00 0.00 53 1018.9
20260903215503 23 6 6.4 9.7 0.00 0.00 0.00 53 1018.8
20260903215024 23 7 4.8 9.7 0.00 0.00 0.00 53 1018.8
20260903214503 23 7 0.0 6.4 0.00 0.00 0.00 53 1018.7
20260903214003 23 0 0.0 0.0 0.00 0.00 0.00 53 1018.8
20260903213503 23 0 0.0 0.0 0.00 0.00 0.00 53 1018.7
20260903213024 23 5 1.6 6.4 0.00 0.00 0.00 53 1018.7
20260903212503 23 2 1.6 6.4 0.00 0.00 0.00 53 1018.6
20260903212003 23 3 3.2 6.4 0.00 0.00 0.00 53 1018.7
20260903211503 23 11 6.4 6.4 0.00 0.00 0.00 53 1018.7
20260903211003 23 15 6.4 8.0 0.00 0.00 0.00 53 1018.8
20260903210524 23 13 3.2 8.0 0.00 0.00 0.00 52 1018.7
20260903210003 23 9 1.6 6.4 0.00 0.00 0.00 52 1018.8
20260903205503 24 0 0.0 0.0 0.00 0.00 0.00 52 1018.7
20260903205003 24 0 0.0 0.0 0.00 0.00 0.00 52 1018.7
20260903204503 24 0 0.0 0.0 0.00 0.00 0.00 52 1018.7
20260903204003 24 0 0.0 0.0 0.00 0.00 0.00 52 1018.6
20260903203503 24 0 0.0 0.0 0.00 0.00 0.00 52 1018.6
20260903203004 24 0 0.0 0.0 0.00 0.00 0.00 52 1018.7
20260903202524 24 0 0.0 0.0 0.00 0.00 0.00 51 1018.5
20260903202003 24 0 0.0 0.0 0.00 0.00 0.00 51 1018.6
20260903201503 24 0 0.0 0.0 0.00 0.00 0.00 51 1018.6
20260903201024 24 0 0.0 0.0 0.00 0.00 0.00 51 1018.5
20260903200503 24 0 0.0 0.0 0.00 0.00 0.00 51 1018.5
20260903200003 24 14 1.6 3.2 0.00 0.00 0.00 51 1018.5
20260903195503 24 14 1.6 3.2 0.00 0.00 0.00 52 1018.4
20260903195003 24 0 0.0 0.0 0.00 0.00 0.00 52 1018.4
20260903194503 25 0 0.0 0.0 0.00 0.00 0.00 51 1018.6
20260903194024 25 0 0.0 0.0 0.00 0.00 0.00 51 1018.5
20260903193503 25 0 0.0 0.0 0.00 0.00 0.00 50 1018.4
20260903193024 25 0 0.0 0.0 0.00 0.00 0.00 49 1018.5
20260903192503 25 0 0.0 0.0 0.00 0.00 0.00 48 1018.4
20260903192003 25 0 0.0 0.0 0.00 0.00 0.00 48 1018.5
20260903191503 25 0 0.0 0.0 0.00 0.00 0.00 48 1018.4
20260903191003 25 0 0.0 0.0 0.00 0.00 0.00 48 1018.4
20260903190524 25 0 0.0 0.0 0.00 0.00 0.00 48 1018.1
20260903190003 25 0 0.0 0.0 0.00 0.00 0.00 47 1018.0
20260903185524 25 0 0.0 0.0 0.00 0.00 0.00 47 1018.0
20260903185024 25 0 0.0 0.0 0.00 0.00 0.00 46 1018.0
20260903184503 26 0 0.0 0.0 0.00 0.00 0.00 46 1017.9
20260903184004 26 0 0.0 0.0 0.00 0.00 0.00 46 1018.0
20260903183524 26 0 0.0 0.0 0.00 0.00 0.00 46 1017.8
20260903183003 26 0 0.0 0.0 0.00 0.00 0.00 46 1017.9
20260903182503 26 0 0.0 0.0 0.00 0.00 0.00 46 1017.7
20260903182003 26 0 0.0 0.0 0.00 0.00 0.00 45 1017.7
20260903181503 26 0 0.0 0.0 0.00 0.00 0.00 45 1017.7
20260903181003 26 0 0.0 0.0 0.00 0.00 0.00 45 1017.6
20260903180524 26 0 0.0 0.0 0.00 0.00 0.00 44 1017.7
20260903180003 26 0 0.0 0.0 0.00 0.00 0.00 44 1017.6
20260903175503 27 0 0.0 0.0 0.00 0.00 0.00 44 1017.7
20260903175003 27 0 0.0 0.0 0.00 0.00 0.00 44 1017.4
20260903174524 27 0 0.0 0.0 0.00 0.00 0.00 43 1017.6
20260903174003 27 0 0.0 0.0 0.00 0.00 0.00 40 1017.4
20260903173503 27 0 0.0 0.0 0.00 0.00 0.00 40 1017.5
20260903173003 28 0 0.0 0.0 0.00 0.00 0.00 40 1017.5
20260903172503 28 0 0.0 0.0 0.00 0.00 0.00 40 1017.4
20260903172024 28 0 0.0 0.0 0.00 0.00 0.00 39 1017.3
20260903171524 28 0 0.0 0.0 0.00 0.00 0.00 39 1017.5
20260903171003 28 0 0.0 0.0 0.00 0.00 0.00 40 1017.5
20260903170503 29 0 0.0 0.0 0.00 0.00 0.00 38 1017.5
20260903170003 29 0 0.0 0.0 0.00 0.00 0.00 38 1017.5
20260903165503 29 0 0.0 0.0 0.00 0.00 0.00 38 1017.6
20260903165003 30 0 0.0 0.0 0.00 0.00 0.00 38 1017.4
20260903164503 30 0 0.0 0.0 0.00 0.00 0.00 38 1017.6
20260903164024 30 0 0.0 0.0 0.00 0.00 0.00 38 1017.5
20260903163503 30 0 0.0 0.0 0.00 0.00 0.00 37 1017.4
20260903163003 31 18 0.0 4.8 0.00 0.00 0.00 37 1017.4
20260903162503 31 18 0.0 4.8 0.00 0.00 0.00 36 1017.4
20260903162024 31 0 0.0 0.0 0.00 0.00 0.00 36 1017.4
20260903161503 31 315 0.0 1.6 0.00 0.00 0.00 36 1017.4
20260903161024 31 315 0.0 1.6 0.00 0.00 0.00 36 1017.4
20260903160503 31 247 0.0 1.6 0.00 0.00 0.00 36 1017.4
20260903160024 31 266 0.0 1.6 0.00 0.00 0.00 36 1017.5
20260903155503 31 341 0.0 1.6 0.00 0.00 0.00 36 1017.3
20260903155003 31 312 0.0 1.6 0.00 0.00 0.00 36 1017.4
20260903154503 31 291 0.0 1.6 0.00 0.00 0.00 36 1017.5
20260903154003 31 254 0.0 3.2 0.00 0.00 0.00 36 1017.5
20260903153503 31 275 0.0 3.2 0.00 0.00 0.00 35 1017.4
20260903153003 31 315 0.0 1.6 0.00 0.00 0.00 35 1017.6
20260903152503 31 0 0.0 0.0 0.00 0.00 0.00 35 1017.4
20260903152024 31 0 0.0 0.0 0.00 0.00 0.00 35 1017.6
20260903151503 31 0 0.0 0.0 0.00 0.00 0.00 34 1017.6
20260903151003 31 0 0.0 0.0 0.00 0.00 0.00 35 1017.6
20260903150503 31 315 0.0 1.6 0.00 0.00 0.00 35 1017.7
20260903150003 31 315 0.0 3.2 0.00 0.00 0.00 35 1017.8
20260903145524 31 318 1.6 6.4 0.00 0.00 0.00 35 1017.7
20260903145003 31 322 3.2 6.4 0.00 0.00 0.00 34 1017.9
20260903144503 31 293 3.2 12.9 0.00 0.00 0.00 34 1017.7
20260903144003 31 301 4.8 12.9 0.00 0.00 0.00 34 1017.8
20260903143524 31 310 4.8 12.9 0.00 0.00 0.00 34 1017.9
20260903143003 31 312 3.2 9.7 0.00 0.00 0.00 33 1017.8
20260903142503 31 289 6.4 11.3 0.00 0.00 0.00 32 1017.7
20260903142004 31 273 4.8 11.3 0.00 0.00 0.00 31 1017.9
20260903141503 31 251 3.2 9.7 0.00 0.00 0.00 31 1017.8
20260903141003 31 249 8.0 9.7 0.00 0.00 0.00 31 1018.0
20260903140503 31 252 4.8 9.7 0.00 0.00 0.00 33 1018.1
20260903140024 31 268 1.6 9.7 0.00 0.00 0.00 33 1018.0
20260903135503 31 293 3.2 6.4 0.00 0.00 0.00 33 1018.1
20260903135003 31 308 1.6 6.4 0.00 0.00 0.00 33 1018.3
20260903134503 31 262 0.0 1.6 0.00 0.00 0.00 34 1018.3
20260903134003 30 315 0.0 1.6 0.00 0.00 0.00 34 1018.3
20260903133503 30 315 0.0 1.6 0.00 0.00 0.00 34 1018.1
20260903133003 30 0 0.0 0.0 0.00 0.00 0.00 34 1018.3
20260903132503 30 0 0.0 0.0 0.00 0.00 0.00 32 1018.3
20260903132005 31 0 0.0 0.0 0.00 0.00 0.00 32 1018.4
20260903131505 31 315 0.0 1.6 0.00 0.00 0.00 32 1018.3
20260903131005 31 305 0.0 4.8 0.00 0.00 0.00 33 1018.3
20260903130505 31 304 3.2 6.4 0.00 0.00 0.00 33 1018.4
20260903130005 31 305 3.2 6.4 0.00 0.00 0.00 33 1018.6
20260903125505 31 315 1.6 4.8 0.00 0.00 0.00 33 1018.6
20260903125005 31 315 0.0 6.4 0.00 0.00 0.00 35 1018.8
20260903124505 31 318 1.6 6.4 0.00 0.00 0.00 34 1018.7
20260903124005 31 292 1.6 6.4 0.00 0.00 0.00 35 1018.9
20260903123505 31 287 1.6 6.4 0.00 0.00 0.00 35 1018.8
20260903123005 31 283 0.0 1.6 0.00 0.00 0.00 36 1019.0
20260903122505 30 263 3.2 8.0 0.00 0.00 0.00 36 1018.8
20260903122005 30 271 3.2 8.0 0.00 0.00 0.00 36 1019.0
20260903121505 30 324 0.0 4.8 0.00 0.00 0.00 36 1019.0
20260903121005 30 0 0.0 0.0 0.00 0.00 0.00 36 1018.9
20260903120505 30 2 0.0 3.2 0.00 0.00 0.00 37 1019.0
20260903120005 30 11 1.6 4.8 0.00 0.00 0.00 37 1019.1
20260903115505 30 10 1.6 6.4 0.00 0.00 0.00 37 1019.0
20260903115005 30 360 1.6 6.4 0.00 0.00 0.00 38 1019.0
20260903114505 30 309 1.6 6.4 0.00 0.00 0.00 37 1019.1
20260903114005 30 303 1.6 4.8 0.00 0.00 0.00 37 1019.2
20260903113505 30 8 0.0 1.6 0.00 0.00 0.00 37 1019.1
20260903113005 30 360 0.0 1.6 0.00 0.00 0.00 37 1019.1
20260903112505 30 295 0.0 4.8 0.00 0.00 0.00 37 1019.2
20260903112026 30 278 1.6 4.8 0.00 0.00 0.00 38 1019.3
20260903111526 29 292 3.2 8.0 0.00 0.00 0.00 36 1019.1
20260903111005 30 303 1.6 8.0 0.00 0.00 0.00 36 1019.1
20260903110505 29 0 0.0 0.0 0.00 0.00 0.00 37 1019.2
20260903110005 29 0 0.0 0.0 0.00 0.00 0.00 37 1019.3
20260903105505 29 0 0.0 0.0 0.00 0.00 0.00 37 1019.3
20260903105005 29 0 0.0 0.0 0.00 0.00 0.00 38 1019.3
20260903104505 29 0 0.0 0.0 0.00 0.00 0.00 37 1019.4
20260903104005 29 0 0.0 0.0 0.00 0.00 0.00 38 1019.7
20260903103505 28 353 0.0 3.2 0.00 0.00 0.00 38 1019.5
20260903103005 28 353 0.0 4.8 0.00 0.00 0.00 37 1019.7
20260903102505 28 16 1.6 6.4 0.00 0.00 0.00 38 1019.8
20260903102005 28 17 4.8 8.0 0.00 0.00 0.00 38 1019.6
20260903101505 28 16 3.2 8.0 0.00 0.00 0.00 39 1019.8
20260903101005 28 2 4.8 6.4 0.00 0.00 0.00 40 1019.9
20260903100526 28 356 4.8 6.4 0.00 0.00 0.00 39 1020.0
20260903100005 28 358 3.2 8.0 0.00 0.00 0.00 39 1020.0
20260903095505 28 12 1.6 8.0 0.00 0.00 0.00 40 1020.1
20260903095005 28 306 0.0 3.2 0.00 0.00 0.00 40 1020.1
20260903094526 28 306 0.0 3.2 0.00 0.00 0.00 39 1019.8
20260903094026 28 247 0.0 1.6 0.00 0.00 0.00 40 1019.8
20260903093505 28 0 0.0 0.0 0.00 0.00 0.00 40 1019.9
20260903093005 27 360 0.0 3.2 0.00 0.00 0.00 40 1019.8
20260903092505 27 360 0.0 3.2 0.00 0.00 0.00 41 1019.8
20260903092005 27 0 0.0 0.0 0.00 0.00 0.00 42 1019.9
20260903091505 27 360 0.0 3.2 0.00 0.00 0.00 42 1019.9
20260903091005 27 360 0.0 3.2 0.00 0.00 0.00 43 1020.1
20260903090526 27 0 0.0 0.0 0.00 0.00 0.00 48 1020.1
20260903090026 27 0 0.0 0.0 0.00 0.00 0.00 48 1020.0
20260903085526 27 11 0.0 3.2 0.00 0.00 0.00 49 1019.9
20260903085005 26 13 1.6 3.2 0.00 0.00 0.00 48 1020.0
20260903084505 26 11 1.6 3.2 0.00 0.00 0.00 48 1020.0
20260903084005 26 360 0.0 3.2 0.00 0.00 0.00 49 1020.1
20260903083505 26 360 0.0 1.6 0.00 0.00 0.00 49 1019.8
20260903083005 26 342 1.6 4.8 0.00 0.00 0.00 50 1019.8
20260903082526 26 352 1.6 6.4 0.00 0.00 0.00 50 1019.6
20260903082026 26 1 3.2 6.4 0.00 0.00 0.00 50 1019.9
20260903081505 25 9 4.8 8.0 0.00 0.00 0.00 50 1019.9
20260903081005 25 19 4.8 8.0 0.00 0.00 0.00 50 1019.8
20260903080505 25 16 6.4 9.7 0.00 0.00 0.00 51 1020.0
20260903080026 25 8 6.4 9.7 0.00 0.00 0.00 51 1019.8
20260903075505 25 3 4.8 9.7 0.00 0.00 0.00 51 1019.9
20260903075005 25 13 3.2 6.4 0.00 0.00 0.00 51 1019.9
20260903074505 25 15 1.6 6.4 0.00 0.00 0.00 51 1019.9
20260903074005 25 360 0.0 3.2 0.00 0.00 0.00 52 1019.5
20260903073505 25 0 0.0 0.0 0.00 0.00 0.00 52 1019.4
20260903073005 24 315 0.0 3.2 0.00 0.00 0.00 52 1019.5
20260903072505 24 352 1.6 6.4 0.00 0.00 0.00 52 1019.4
20260903072005 23 354 3.2 6.4 0.00 0.00 0.00 52 1019.6
20260903071505 23 355 1.6 6.4 0.00 0.00 0.00 52 1019.5
20260903071026 23 343 1.6 6.4 0.00 0.00 0.00 53 1019.4
20260903070526 23 342 1.6 3.2 0.00 0.00 0.00 53 1019.5
20260903070005 23 5 1.6 6.4 0.00 0.00 0.00 53 1019.5
20260903065505 23 12 4.8 9.7 0.00 0.00 0.00 53 1019.4
20260903065005 22 15 6.4 9.7 0.00 0.00 0.00 53 1019.4
20260903064505 22 17 6.4 9.7 0.00 0.00 0.00 53 1019.4
20260903064005 22 15 6.4 6.4 0.00 0.00 0.00 54 1019.4
20260903063505 22 10 4.8 6.4 0.00 0.00 0.00 55 1019.4
20260903063026 22 2 4.8 6.4 0.00 0.00 0.00 60 1019.4
20260903062505 22 354 3.2 4.8 0.00 0.00 0.00 60 1019.4
20260903062005 22 355 3.2 4.8 0.00 0.00 0.00 60 1019.5
20260903061505 21 2 1.6 8.0 0.00 0.00 0.00 60 1019.4
20260903061005 21 357 3.2 8.0 0.00 0.00 0.00 60 1019.5
20260903060526 21 351 4.8 8.0 0.00 0.00 0.00 60 1019.3
20260903060005 21 354 4.8 8.0 0.00 0.00 0.00 60 1019.4
20260903055505 21 9 3.2 6.4 0.00 0.00 0.00 60 1019.1
20260903055026 21 4 1.6 6.4 0.00 0.00 0.00 59 1019.0
20260903054505 21 0 0.0 0.0 0.00 0.00 0.00 59 1019.0
20260903054005 21 0 0.0 0.0 0.00 0.00 0.00 59 1019.0
20260903053505 21 0 0.0 0.0 0.00 0.00 0.00 60 1019.0
20260903053005 21 29 3.2 9.7 0.00 0.00 0.00 60 1019.0
20260903052505 21 28 8.0 12.9 0.00 0.00 0.00 60 1018.9
20260903052005 21 24 11.3 12.9 0.00 0.00 0.00 60 1018.7
20260903051526 21 17 8.0 12.9 0.00 0.00 0.00 60 1018.9
20260903051005 20 12 4.8 11.3 0.00 0.00 0.00 60 1018.9
20260903050526 20 18 3.2 8.0 0.00 0.00 0.00 60 1018.8
20260903050005 20 18 3.2 11.3 0.00 0.00 0.00 60 1018.8
20260903045505 20 14 6.4 11.3 0.00 0.00 0.00 60 1018.7
20260903045005 20 11 6.4 11.3 0.00 0.00 0.00 60 1018.6
20260903044505 20 7 1.6 8.0 0.00 0.00 0.00 60 1018.5
20260903044005 20 360 0.0 3.2 0.00 0.00 0.00 60 1018.5
20260903043505 20 14 3.2 8.0 0.00 0.00 0.00 61 1018.4
20260903043005 20 12 8.0 9.7 0.00 0.00 0.00 61 1018.3
20260903042526 20 9 8.0 9.7 0.00 0.00 0.00 61 1018.5